Orient Glider Airport

Jump to: basic info | weather | comments

Related pages: nearby airports | nearby navaids | notams | map

Basic information (top)

Codes: FAOI
Location: lon -26.039400, lat 27.595600, elev 5,102 ft / 1,555 m msl
Status: small_airport

Weather (top)

Current conditions for Lanseria Airport 19nm (35km) ENE (rec'd 2014/09/03 06:23Z):

FALA 030623Z 07003KT 330V110 CAVOK 12/03 Q1031 NOSIG

Airport forecast for Lanseria Airport 19nm (35km) ENE (rec'd 2014/09/02 00:00Z):

TAF FALA 022200Z 0300/0324 VRB02KT CAVOK 
      BECMG 0308/0310 01006KT TX23/0312ZTN07/0304Z

Latest comments (top)

Runway Orientation and Airfield Frequency: Runway 36/18 (Main) Runway 11/29 Airfi ... [read]

More... (top)

See also NOTAMs and nearby airports and navaids, or visit the Orient Glider Airport page at the main OurAirports website..